Regional Weather Roundup
Issued by NWS Wakefield, VA

Home | Current Version | Previous Version | Text Only | Print | Product List | Glossary On
Versions: 1 2 3 4 5 6 7 8 9 10 11 12 13 14 15 16 17 18 19 20 21 22 23 24 25 26 27 28 29 30 31 32 33 34 35 36 37 38 39 40 41 42 43 44 45 46 47 48 49 50
000
ASUS41 KAKQ 222210
RWRAKQ

REGIONAL WEATHER ROUNDUP
NATIONAL WEATHER SERVICE WAKEFIELD VA
500 PM EST MON DEC 22 2014

Note: "fair" indicates few or no clouds below 12,000 feet with no
significant weather and/or obstructions to visibility. * = Denotes
station may not report precipitation (e.g., rain,snow,etc.),
thunder or fog.

VAZ042-051-052>054-056-222300-
NORTHERN VIRGINIA

CITY           SKY/WX    TMP DP  RH WIND       PRES   REMARKS
WASH NATIONAL  LGT RAIN  37  34  87 N7        30.18S
DULLES         DRZL/FOG  33  31  92 NW6       30.18R VSB 3/4
FORT BELVOIR   LGT RAIN  36  34  93 VRB6      30.18R FOG
QUANTICO       LGT RAIN  36  33  89 N6        30.18R FOG
FREDERICKSBRG* HVY RAIN  36  36 100 N7        30.15R
STAFFORD*      LGT RAIN  34  34 100 N8        30.20S
WARRENTON      DRIZZLE   34  34 100 N5        30.17R
CULPEPER*      LGT RAIN  36  34  93 N6          N/A
MANASSAS*      CLOUDY    34  34 100 N7        30.18  FOG
LEESBURG*      MIX PCPN  34  34 100 N6        30.20R
WINCHESTER     MIX PCPN  34  30  86 CALM      30.17R
FRONT ROYAL*   CLOUDY    32  32 100 CALM      30.16R
LURAY*         DRIZZLE   34  34 100 CALM      30.14F
$$

VAZ048-049-060>072-079>083-222300-
CENTRAL AND SOUTH CENTRAL VIRGINIA

CITY           SKY/WX    TMP DP  RH WIND       PRES   REMARKS
RICHMOND       LGT RAIN  38  35  89 N13       30.11S FOG
CHESTERFIELD*  CLOUDY    37  25  60 N9        30.11F
PETERSBURG*    DRIZZLE   39  38  97 N8        30.09F
HANOVER        LGT RAIN  35  34  96 VRB5      30.14S FOG
TAPPAHANNOCK*  CLOUDY    38  35  89 N7        30.12R FOG
QUINTON*       CLOUDY    37  37  97 NW6       30.10S
CHARLOTTSVILLE LGT RAIN  34  32  92 NE3       30.14S FOG
GORDONSVILLE*  CLOUDY    33  32  96 NE6       30.15R FOG
ORANGE*        MIX PCPN  34  32  93 NW6       30.17R
LOUISA*        MIX PCPN  34  34 100 N9        30.13S
BUMPASS*       CLOUDY    34  33  96 N3        30.14R
FARMVILLE*     CLOUDY    37  37 100 N5        30.11F FOG
CREWE*         CLOUDY    35  34  95 N5        30.10R
FORT PICKETT*  CLOUDY    35  35  98 N9        30.09R
CHASE CITY*    CLOUDY    37  37 100 N3        30.09R
CLARKSVILLE*   CLOUDY    36  36 100 N6        30.09R
SOUTH HILL*    CLOUDY    36  35  96 N9        30.13R
LAWRENCEVILLE* CLOUDY    37  37  98 N5        30.07S
EMPORIA*       CLOUDY    37  37 100 NW9       30.08R FOG
$$

VAZ088>098-222300-
SOUTHEAST VIRGINIA

CITY           SKY/WX    TMP DP  RH WIND       PRES   REMARKS
NORFOLK        CLOUDY    48  46  93 NE12      30.01F
VIRGINIA BEACH CLOUDY    51  49  92 NE15G22   29.98F
NORFOLK NAVAL  CLOUDY    50  45  83 N16       30.04R FOG
WEST POINT*    CLOUDY    42  40  91 NW3       30.11S
SALUDA*        CLOUDY    41  39  94 N7        30.09R
NEWPORT NEWS   CLOUDY    47  43  86 N7        30.06R FOG
LANGLEY AFB    CLOUDY    45  43  93 N9        30.05R FOG
FORT EUSTIS    CLOUDY    43 N/A N/A N8        30.06R
WILLIAMSBURG*  CLOUDY    45  45 100 N6        30.08S
HR EXEC AP*    CLOUDY    48  46  93 N5        30.06R
FRANKLIN*      CLOUDY    43 N/A N/A N6        30.05S
WAKEFIELD      LGT RAIN  41  39  93 N8        30.07S FOG
$$

VAZ020-022-025-037-045-222300-
WEST CENTRAL AND SOUTHWEST VIRGINIA

CITY           SKY/WX    TMP DP  RH WIND       PRES   REMARKS
STAUNTON*      DRIZZLE   34  32  93 N3        30.14S
WAYNESBORO*    CLOUDY    32  32 100 N3        30.11S
HOT SPRINGS VA SNOW      30  30 100 E7        29.97S VSB<1/4
LYNCHBURG      LGT RAIN  33  33 100 N10       30.11S FOG     WCI  25
DANVILLE       CLOUDY    37  33  85 NE9       30.10S FOG
SOUTH BOSTON*  CLOUDY    35  34  95 NE5       30.10R
MARTINSVILLE   CLOUDY    36  36 100 N5        30.11S FOG
ROANOKE        DRIZZLE   36  34  92 CALM      30.11S FOG
BLACKSBURG     CLOUDY    33  32  96 E6        30.07S FOG
DUBLIN*        CLOUDY    36  36 100 E6        30.05S FOG
MARION*        CLOUDY    37  36  95 E12       30.01S FOG
HILLSVILLE*    FOG       36  36 100 NE3       30.00S VSB 3/4
RICHLANDS*     CLEAR     45  36  72 SE6       29.90S
WISE*          CLEAR     52  37  58 E3        29.88S
ABINGDON*      MOCLDY    49  40  72 E16       29.90S
$$

MDZ021>025-VAZ099-100-222300-
SOUTHERN MARYLAND AND THE DELMARVA PENINSULA

CITY           SKY/WX    TMP DP  RH WIND       PRES   REMARKS
PATUXENT RIVER LGT RAIN  38  35  89 N7        30.13R FOG
BAY BRIDGE APT DRIZZLE   36  36 100 N3        30.15F
LEONARDTOWN    CLOUDY    36  34  93 E5        30.14R
DOVER          CLOUDY    41  41 100 N7        30.12F
GEORGETOWN     CLOUDY    42  39  89 NE8       30.13F
EASTON         LGT RAIN  39  39 100 NE8       30.16F FOG
CAMBRIDGE      CLOUDY    41  37  87 N6        30.13R
SALISBURY      LGT RAIN  45  42  89 NE10      30.10F FOG
OCEAN CITY     CLOUDY    45  43  93 NE8       30.10F
WALLOPS ISLAND CLOUDY    43  43 100 E16       30.07F
ACCOMACK*      CLOUDY    46  45  93 E16G24    30.04F
$$

NCZ012>017-030>032-222300-
NORTH CENTRAL AND EASTERN NORTH CAROLINA

CITY           SKY/WX    TMP DP  RH WIND       PRES   REMARKS
ROANOKE RAPIDS CLOUDY    37  37 100 N10       30.05S FOG
RALEIGH        DRIZZLE   38  35  89 N5        30.08R FOG
ELIZABETH CITY CLOUDY    56  52  86 NE9       29.97F FOG
AHOSKIE*       CLOUDY    42  41  96 N8        30.03S FOG
EDENTON*       CLOUDY    50  50  98 N8        29.99S FOG
CURRITUCK*     CLOUDY    53  52  94 NE12G17   29.97F
KILL DEVIL HLS FOG       54  54 100 N5        29.94F VSB 3/4
MANTEO         CLOUDY    54  54 100 N6        29.96F FOG
CAPE HATTERAS  FOG       52  52 100 N6        29.95S VSB 1/2
TARBORO*       CLOUDY    43  39  87 N8        30.04
GOLDSBORO      CLOUDY    43  41  93 N6        30.01R
WASHINGTON     CLOUDY    46  45  95 NW5       30.00R
GREENVILLE     CLOUDY    43  43 100 N6        30.04R
NEW BERN       CLOUDY    49  46  90 N3        30.00S FOG
WILMINGTON     LGT RAIN  46  45  96 N6        30.00R
$$

VAZ048-222300-
ELSEWHERE

CITY           SKY/WX    TMP DP  RH WIND       PRES   REMARKS
HARRISBURG PA  CLOUDY    35  28  75 NW5       30.18S
BALTIMORE      LGT RAIN  35  33  92 NW5       30.16F FOG
ANNAPOLIS      LGT RAIN  36  33  89 NW5       30.16S FOG
ANDREWS AFB    DRIZZLE   34  32  93 N8        30.15S FOG
PHILADELPHIA   CLOUDY    42  35  76 NE12G24   30.18F
HENDERSON NC   CLOUDY    37  35  94 N7        30.07R FOG
GREENSBORO     DRIZZLE   35  34  96 NE9       30.06R FOG
ROCKY MOUNT    CLOUDY    41  39  93 N12       30.04S
$$

VAZ100-222300-
MARINE

STATION/POSITION TIME  TEMP    WIND        PRES    WAVE   SWELL
                       AIR SEA DIR/SP/G            HT/PER HT/PER
                 (UTC) (F)     (DEG/KT/KT) (MB)    (FT/S) (FT/S)
CAPE MAY NJ      2200   43 44   50/  8/ 14 1019.8F
LEWES DE         2200   44 42   70/ 16/ 19 1019.7F
15NM E FENWICK I 2200   48 45              1019.3F   3/ 3
OCEAN-CITY-INLET 2200   45 43   60/  7/ 10 1019.1S
WACHAPREAGUE VA  2200   46 41   50/ 14/ 19 1017.0F
THOMAS POINT MD  2200   37 41   10/ 13/ 15 1021.9S
GOOSES REEF MD   2200   37     VRB 12/ 14  1019.7R
COVE POINT MD    2200   37      20/ 14/ 17 1020.1S
SOLOMONS ISLAND  2200      42                N/A
BISHOPS HEAD MD  2200   40 38   10/  7/ 10 1018.9R
PINEY POINT MD   2200           20/  7/  8   N/A
POTOMAC MD       2200   40      30/ 16/ 17 1018.6R
CAMBRIDGE MD     2200   39 39   20/  7/  8 1020.2R
LEWISETTA VA     2200   39 41   20/  7/ 10 1019.3R
RAPPAHANNOCK LGT 2200           40/ 16/ 18 1017.8R
STINGRAY PT      2200   42      10/ 16/ 17 1018.6R
YORK RVR RNG VA  2200   44      10/ 14/ 16 1016.8R
YORKTOWN VA      2200   44 45  350/  9/ 11 1017.7R
JAMESTOWN VA     2200   41     340/ 10/ 12   N/A
DOMINION TERM VA 2200   47     360/  7/ 10 1017.1R
KIPTOPEKE VA     2200      48   70/ 13/ 20   N/A
CHES BAY BRIDGE  2200   48 45   30/ 19/ 24 1015.0R
CAPE HENRY VA    2200   48      60/ 18/ 21 1014.0F
CHESAPEAKE LGHT  2100   51      60/ 26/ 29 1016.2S
WILLOUBY STN VA  2200   47      20/ 15/ 16 1017.1R
S CRANEY ISL VA  2200           30/ 11/ 14 1016.3R
CAPE HENRY BUOY  2200      48                N/A     7/ 7
1ST LANDING BUOY 2200   48      60/ 19/ 25 1014.8F
CAPE CHARLES BUO 2200      46                N/A     6/ 7   2/12
64NM E OF VA BCH 2200   60 54   70/ 16/ 17 1015.1R  10/ 7
DUCK PIER NC     2200   52 46   40/ 20/ 22 1013.6F
44100 DUCK FRF   2200      51                N/A    10/ 8   2/11
44056 DUCK FRF   2200      48                N/A     9/ 8
OREGON INLET NC  2200   53 48  350/  3/  4 1014.4S
HATTERAS NC      2200   52 54  330/  4/  5 1014.7F
DIAMOND SHLS NC  2200   69                 1014.0R   8/ 9
CAPE LOOKOUT NC  2100   51     330/ 12/ 15 1015.3R
$$


USA.gov is the U.S. government's official web portal to all federal, state and local government web resources and services.